Change the Weather History Date:

Monday, March 11, 2013

  Actual Average Record
Temperature  
Mean Temperature 28 °F -  
Max Temperature 29 °F 52 °F 59 °F (2007)
Min Temperature 26 °F 38 °F 26 °F (2013)
Degree Days  
Heating Degree Days 38    
Moisture  
Dew Point 25 °F    
Average Humidity 85    
Maximum Humidity 94    
Minimum Humidity 67    
Precipitation  
Precipitation 0.02 in - - ()
Sea Level Pressure  
Sea Level Pressure 29.64 in    
Wind  
Wind Speed 15 mph ()    
Max Wind Speed 24 mph    
Max Gust Speed 36 mph    
Visibility 3.2 miles    
Events Snow    
Averages and records for this station are not official NWS values.
T = Trace of Precipitation, MM = Missing Value Source: Averaged Metar Reports

Daily Weather History Graph

Daily Weather History Graph

Search for Another Location

Airport or City:

Trip Planner

Search our weather history database for the weather conditions in past years. The results will help you decide how hot, cold, wet, or windy it might be!

Date:

Astronomy

Mar. 11, 2013 Rise Set
Actual Time 7:10 AM CET 6:45 PM CET
Civil Twilight 6:37 AM CET 7:18 PM CET
Nautical Twilight 5:59 AM CET 7:56 PM CET
Astronomical Twilight 5:20 AM CET 8:35 PM CET
Moon 6:34 AM CET (3/11) 6:46 PM CET (3/11)
Length of Visible Light 12h 41m
Length of Day
11h 35m
Waning Crescent, 0% of the Moon is Illuminated
Mar 11
Waning Crescent
Mar 11
New
Mar 19
First Quarter
Mar 27
Full
Apr 3
Last Quarter

Hourly Weather History & Observations

Time (CET) Temp. Windchill Dew Point Humidity Pressure Visibility Wind Dir Wind Speed Gust Speed Precip Events Conditions
12:00 AM 32.0 °F 22.5 °F 26.6 °F 80% 29.68 in 4.3 mi ENE 12.7 mph - N/A   Overcast
1:00 AM 32 °F - 25 °F 67% 29.69 in 4 mi ENE 12.7 mph - -   Overcast
1:00 AM 32.0 °F 22.5 °F 24.8 °F 75% 29.68 in 4.3 mi ENE 12.7 mph - N/A   Overcast
1:30 AM 32.0 °F 22.5 °F 24.8 °F 75% 29.68 in 4.3 mi ENE 12.7 mph - N/A   Overcast
2:00 AM 32.0 °F 23.0 °F 24.8 °F 75% 29.65 in 4.3 mi ENE 11.5 mph - N/A   Overcast
2:30 AM 32.0 °F 22.1 °F 24.8 °F 75% 29.65 in 4.3 mi ENE 13.8 mph - N/A   Overcast
3:00 AM 32.0 °F 21.6 °F 24.8 °F 75% 29.65 in 5.0 mi NE 15.0 mph - N/A   Overcast
3:30 AM 32.0 °F 22.1 °F 24.8 °F 75% 29.65 in 5.6 mi NE 13.8 mph - N/A   Overcast
4:00 AM 32.0 °F 22.5 °F 24.8 °F 75% 29.65 in 5.0 mi NE 12.7 mph - N/A   Overcast
4:30 AM 30.2 °F 19.8 °F 24.8 °F 80% 29.65 in 5.0 mi NE 13.8 mph - N/A   Overcast
5:00 AM 30.2 °F 18.5 °F 24.8 °F 80% 29.65 in 5.0 mi ENE 17.3 mph - N/A   Overcast
5:30 AM 30.2 °F 18.9 °F 23.0 °F 75% 29.65 in 6.2 mi NE 16.1 mph - N/A   Overcast
6:00 AM 30.2 °F 18.5 °F 24.8 °F 80% 29.65 in 6.2 mi ENE 17.3 mph - N/A   Overcast
6:30 AM 30.2 °F 18.1 °F 23.0 °F 75% 29.65 in 6.2 mi NE 18.4 mph - N/A   Overcast
7:00 AM 30 °F - 23 °F 67% 29.68 in 5 mi ENE 17.3 mph - - Snow Light Snow
7:00 AM 30.2 °F 18.5 °F 23.0 °F 75% 29.65 in 5.0 mi ENE 17.3 mph - N/A Snow Light Snow
7:30 AM 30.2 °F 18.5 °F 23.0 °F 75% 29.65 in 5.0 mi ENE 17.3 mph - N/A Snow Light Snow
8:00 AM 30.2 °F 18.1 °F 23.0 °F 75% 29.65 in 5.0 mi ENE 18.4 mph - N/A Snow Light Snow
8:30 AM 28.4 °F 15.4 °F 24.8 °F 86% 29.65 in 1.6 mi ENE 19.6 mph - N/A Snow Light Snow
9:00 AM 28.4 °F 15.8 °F 24.8 °F 86% 29.65 in 1.6 mi ENE 18.4 mph - N/A Snow Light Snow
9:30 AM 28.4 °F 15.8 °F 26.6 °F 93% 29.65 in 1.2 mi ENE 18.4 mph - N/A Snow Light Snow
10:00 AM 28.4 °F 15.8 °F 26.6 °F 93% 29.65 in 0.9 mi ENE 18.4 mph - N/A Snow Light Snow
10:30 AM 28.4 °F 16.6 °F 26.6 °F 93% 29.65 in 1.2 mi ENE 16.1 mph - N/A Snow Light Snow
11:00 AM 28.4 °F 17.0 °F 26.6 °F 93% 29.65 in 1.2 mi ENE 15.0 mph - N/A Snow Light Snow
11:30 AM 28.4 °F 17.5 °F 26.6 °F 93% 29.68 in 0.9 mi ENE 13.8 mph - N/A Snow Light Snow
12:00 PM 28.4 °F 17.0 °F 26.6 °F 93% 29.65 in 0.5 mi ENE 15.0 mph - N/A Snow Light Snow
12:30 PM 28.4 °F 16.2 °F 26.6 °F 93% 29.65 in 1.1 mi ENE 17.3 mph - N/A Snow Light Snow
1:00 PM 28 °F - 27 °F 94% 29.68 in 1 mi ENE 17.3 mph - - Snow Light Snow
1:00 PM 28.4 °F 15.8 °F 26.6 °F 93% 29.65 in 1.2 mi ENE 18.4 mph - N/A Snow Light Snow
1:30 PM 28.4 °F 15.4 °F 26.6 °F 93% 29.65 in 1.9 mi NE 19.6 mph - N/A Snow Light Snow
2:00 PM 28.4 °F 15.1 °F 26.6 °F 93% 29.65 in 1.9 mi NE 20.7 mph - N/A Snow Light Snow
2:30 PM 28.4 °F 15.1 °F 26.6 °F 93% 29.65 in 1.9 mi ENE 20.7 mph - N/A Snow Light Snow
3:00 PM 28.4 °F 14.7 °F 26.6 °F 93% 29.62 in 1.9 mi ENE 21.9 mph - N/A Snow Light Snow
3:30 PM 28.4 °F 15.4 °F 26.6 °F 93% 29.62 in 1.9 mi ENE 19.6 mph - N/A Snow Light Snow
4:00 PM 28.4 °F 15.4 °F 26.6 °F 93% 29.65 in 2.5 mi ENE 19.6 mph - N/A Snow Light Snow
4:30 PM 28.4 °F 15.4 °F 26.6 °F 93% 29.65 in 2.5 mi ENE 19.6 mph - N/A Snow Light Snow
5:00 PM 28.4 °F 15.4 °F 26.6 °F 93% 29.62 in 2.5 mi NE 19.6 mph - N/A Snow Light Snow
5:30 PM 28.4 °F 15.1 °F 26.6 °F 93% 29.62 in 2.5 mi ENE 20.7 mph - N/A Snow Light Snow
6:00 PM 28.4 °F 14.1 °F 26.6 °F 93% 29.62 in 2.8 mi ENE 24.2 mph - N/A Snow Light Snow
6:30 PM 28.4 °F 15.4 °F 26.6 °F 93% 29.62 in 3.7 mi ENE 19.6 mph - N/A Snow Light Snow
7:00 PM 28 °F - 26 °F 86% 29.63 in 4 mi ENE 23.0 mph - - Snow Light Snow
7:00 PM 28.4 °F 14.4 °F 24.8 °F 86% 29.59 in 3.7 mi ENE 23.0 mph - N/A Snow Light Snow
7:30 PM 28.4 °F 14.7 °F 24.8 °F 86% 29.62 in 3.7 mi ENE 21.9 mph - N/A Snow Light Snow
8:00 PM 28.4 °F 14.7 °F 24.8 °F 86% 29.62 in 3.7 mi ENE 21.9 mph - N/A Snow Light Snow
8:30 PM 28.4 °F 14.1 °F 23.0 °F 80% 29.62 in 5.0 mi ENE 24.2 mph - N/A Snow Light Snow
9:00 PM 28.4 °F 14.7 °F 24.8 °F 86% 29.62 in 3.7 mi ENE 21.9 mph - N/A Snow Light Snow
9:30 PM 28.4 °F 14.7 °F 23.0 °F 80% 29.62 in 5.0 mi ENE 21.9 mph - N/A Snow Light Snow
9:54 PM 28.4 °F 14.4 °F 23.0 °F 80% 29.62 in 3.7 mi ENE 23.0 mph 35.7 mph N/A Snow Light Snow
10:30 PM 26.6 °F 12.0 °F 24.8 °F 93% 29.62 in 1.6 mi ENE 23.0 mph - N/A Snow Light Snow
11:00 PM 26.6 °F 12.0 °F 24.8 °F 93% 29.59 in 1.6 mi ENE 23.0 mph - N/A Snow Light Snow
11:30 PM 26.6 °F 12.4 °F 24.8 °F 93% 29.62 in 1.2 mi ENE 21.9 mph - N/A Snow Light Snow